Location: Ferchesar
(52.6477°N, 12.4298°E)
Time: 10:43:37
(UTC+01:00)

AO-73 - Pass Details

Date: 25 October 2021
Orbit: 581 x 661 km, 97.6° (Epoch: 28 November)

Event Time Altitude Azimuth Distance (km) Brightness Sun altitude
Rises 06:18:48 0° 11° (N) 2,821 ? -15.0°
Reaches altitude 10° 06:20:58 10° 8° (N) 1,921 ? -14.7°
Maximum altitude 06:25:05 63° 288° (WNW) 665 ? -14.1°
Drops below altitude 10° 06:29:14 10° 208° (SSW) 1,936 ? -13.4°
Sets 06:31:25 0° 205° (SSW) 2,845 ? -13.1°
